Location: Voyageurs National Park
(48.5020°N, 92.9292°W)
Time: 17:03:15
(UTC-05:00)

Amateur Radio Satellites - All Passes

Search period start: 25 July 2016 16:33
Search period end: 26 July 2016 16:33
Location: Voyageurs National Park, 48.5020°N, 92.9292°W

Satellite Date Start Highest point End Downlink Frequencies (MHz)
Time Altitude Azimuth
NOAA 15 25 Jul 16:36:21 16:39:15 15° 54° (NE) 16:42:10 137.62
BRITE-PL 25 Jul 16:39:41 16:41:05 12° 57° (ENE) 16:42:30 437.365/2234.400
RS-15 25 Jul 16:41:24 16:53:46 81° 236° (WSW) 17:06:01 29.354- 29.394
DANDE 25 Jul 16:44:00 16:46:09 23° 265° (W) 16:48:20 436.750
MOZHAYETS 4 25 Jul 16:47:56 16:52:22 45° 99° (E) 16:56:45
HORYU 2 25 Jul 16:53:13 16:57:39 60° 71° (ENE) 17:02:06 437.375
AO-85 25 Jul 16:54:31 16:59:08 30° 323° (NW) 17:03:31 145.980
AO-7 25 Jul 16:56:14 17:03:57 40° 263° (W) 17:11:43 29.400- 29.500
SWISSCUBE 25 Jul 17:06:50 17:10:26 22° 300° (WNW) 17:14:01 437.505
STARS 25 Jul 17:11:37 17:15:47 37° 98° (E) 17:19:55 437.465
Cubesat XI-IV 25 Jul 17:23:27 17:27:53 27° 61° (ENE) 17:32:20 437.490
GONETS M04 25 Jul 17:24:03 17:32:26 51° 289° (WNW) 17:40:55
Cosmos 2499 25 Jul 17:25:31 17:34:20 63° 285° (WNW) 17:42:55 435.465 / 435.565
BEESAT 25 Jul 17:28:59 17:31:52 16° 303° (WNW) 17:34:45 436.000
CUTE-I 25 Jul 17:47:02 17:52:01 40° 65° (ENE) 17:57:00 437.470
GOMX 1 25 Jul 17:49:09 17:52:35 25° 64° (ENE) 17:56:08 467.674
ITUPSAT 1 25 Jul 17:52:04 17:53:27 11° 307° (NW) 17:54:50 437.325
DOVE 4 25 Jul 17:52:46 17:55:13 15° 57° (ENE) 17:57:46 437.250
LilacSat-2 25 Jul 17:55:33 17:59:04 34° 69° (ENE) 18:02:38 437.200
CUBESAT XI-V 25 Jul 18:02:15 18:06:29 35° 96° (E) 18:10:41 437.345
KKS-1 25 Jul 18:04:13 18:08:22 37° 293° (WNW) 18:12:30 437.445
NOAA 18 25 Jul 18:06:56 18:12:22 60° 69° (ENE) 18:17:51 137.9125
SO-50 25 Jul 18:07:19 18:11:47 46° 239° (WSW) 18:16:06 436.795
NOAA 15 25 Jul 18:13:00 18:18:15 82° 73° (ENE) 18:23:32 137.62
BRITE-PL 25 Jul 18:14:47 18:18:56 88° 248° (WSW) 18:23:09 437.365/2234.400
MOZHAYETS 4 25 Jul 18:25:37 18:29:18 24° 297° (WNW) 18:32:56
HORYU 2 25 Jul 18:31:39 18:34:36 17° 270° (W) 18:37:34 437.375
CANX-2 25 Jul 18:32:34 18:32:57 10° 56° (NE) 18:33:20 2200.000
HO-68 25 Jul 18:33:01 18:38:42 26° 53° (NE) 18:44:24 435.675
AO-85 25 Jul 18:38:49 18:41:08 13° 346° (NNW) 18:43:24 145.980
CUTE 1.7 + AOD 2 25 Jul 18:45:01 18:46:39 12° 57° (ENE) 18:48:16 437.475
STARS 25 Jul 18:48:14 18:52:00 27° 296° (WNW) 18:55:45 437.465
RS-15 25 Jul 18:55:15 19:04:23 26° 260° (W) 19:13:28 29.354- 29.394
Cubesat XI-IV 25 Jul 19:02:24 19:07:40 54° 260° (W) 19:12:58 437.490
PCSat 25 Jul 19:15:27 19:18:47 17° 105° (ESE) 19:22:08 145.827
Cosmos 2499 25 Jul 19:24:03 19:29:25 17° 309° (NW) 19:34:42 435.465 / 435.565
SEEDS 25 Jul 19:25:43 19:28:53 21° 63° (ENE) 19:32:02 437.485
GOMX 1 25 Jul 19:26:41 19:30:33 36° 264° (W) 19:34:35 467.674
CUTE-I 25 Jul 19:27:16 19:32:07 34° 264° (W) 19:37:01 437.470
DOVE 4 25 Jul 19:28:01 19:32:17 76° 257° (WSW) 19:36:51 437.250
GONETS M04 25 Jul 19:28:08 19:31:55 13° 315° (NW) 19:35:45
YUBILEINY 25 Jul 19:29:05 19:35:21 21° 54° (NE) 19:41:34 435.215
LilacSat-2 25 Jul 19:30:22 19:33:28 22° 267° (W) 19:36:35 437.200
CUBEBUG 2 25 Jul 19:36:31 19:39:31 17° 59° (ENE) 19:42:33 437.445
CUBESAT XI-V 25 Jul 19:39:47 19:43:48 30° 294° (WNW) 19:47:49 437.345
COMPASS 1 25 Jul 19:40:51 19:44:00 21° 64° (ENE) 19:47:09 437.405
PHONESAT 2.4 25 Jul 19:44:23 19:46:27 17° 171° (S) 19:48:31 2401.200-2431.200
NOAA 18 25 Jul 19:49:03 19:53:25 24° 268° (W) 19:57:51 137.9125
CINEMA 3 25 Jul 19:52:17 19:56:44 61° 72° (ENE) 20:01:26 145.822/145.860
NOAA 15 25 Jul 19:55:36 19:58:42 16° 272° (W) 20:01:48 137.62
BEESAT 3 25 Jul 20:00:25 20:04:19 74° 126° (SE) 20:08:17 437.485
BEESAT 2 25 Jul 20:03:07 20:06:54 44° 121° (ESE) 20:10:43 435.950
CANX-2 25 Jul 20:03:46 20:08:02 73° 75° (ENE) 20:12:19 2200.000
Oscar 11 25 Jul 20:08:24 20:11:00 16° 59° (ENE) 20:13:37 145.826/435.025
AAUSAT CUBESAT 2 25 Jul 20:10:17 20:13:58 32° 68° (ENE) 20:17:41 437.432
CUTE 1.7 + AOD 2 25 Jul 20:17:32 20:21:49 88° 72° (ENE) 20:26:07 437.475
M-CUBED/EXP-1 PRIME 25 Jul 20:17:32 20:19:13 12° 49° (NE) 20:20:58 437.505
HO-68 25 Jul 20:18:29 20:25:42 82° 253° (WSW) 20:32:57 435.675
AO-85 25 Jul 20:21:39 20:23:41 12° 12° (NNE) 20:25:41 145.980
Cosmos 2504 25 Jul 20:24:24 20:28:45 15° 47° (NE) 20:32:58 435.465 / 435.565
STRAND 1 25 Jul 20:25:36 20:30:41 58° 101° (E) 20:35:42 437.568
O/OREOS (USA 219) 25 Jul 20:30:51 20:33:12 14° 99° (E) 20:35:34 437.305
AUBIESAT-1 25 Jul 20:43:56 20:46:38 18° 53° (NE) 20:49:28 437.475
DELFI C3 25 Jul 20:48:54 20:51:23 16° 62° (ENE) 20:53:52 145.870
UWE-3 25 Jul 20:52:37 20:57:05 56° 71° (ENE) 21:01:40 435.000/436.395/437.385
HUMSAT D 25 Jul 20:54:31 20:55:50 11° 56° (ENE) 20:57:08 437.325/437.525
PCSat 25 Jul 20:56:01 21:01:28 87° 304° (NW) 21:06:57 145.827
ZACube-1 25 Jul 20:57:20 21:01:37 42° 69° (ENE) 21:05:59 437.345
FUNcube-1 25 Jul 20:57:26 21:01:40 40° 68° (ENE) 21:05:58 145.935
Cosmos 2491 25 Jul 20:57:43 21:04:18 25° 78° (ENE) 21:10:52 435.465 / 435.565
SEEDS 25 Jul 21:00:13 21:04:18 46° 261° (W) 21:08:24 437.485
CUBEBUG 2 25 Jul 21:10:59 21:15:34 72° 258° (WSW) 21:20:19 437.445
COMPASS 1 25 Jul 21:15:17 21:19:18 45° 262° (W) 21:23:20 437.405
PHONESAT 2.4 25 Jul 21:20:12 21:22:21 17° 187° (S) 21:24:29 2401.200-2431.200
YUBILEINY 25 Jul 21:24:59 21:33:54 76° 79° (E) 21:42:43 435.215
CINEMA 3 25 Jul 21:31:18 21:34:21 18° 272° (W) 21:37:30 145.822/145.860
BEESAT 3 25 Jul 21:39:29 21:42:27 20° 326° (NNW) 21:45:27 437.485
BEESAT 2 25 Jul 21:41:27 21:44:54 27° 321° (NW) 21:48:22 435.950
Oscar 11 25 Jul 21:42:17 21:46:38 70° 258° (WSW) 21:51:00 145.826/435.025
CANX-2 25 Jul 21:42:23 21:44:24 13° 272° (W) 21:46:25 2200.000
PRISM 25 Jul 21:43:22 21:47:22 49° 100° (E) 21:51:20 437.425
AAUSAT CUBESAT 2 25 Jul 21:45:54 21:49:29 27° 265° (W) 21:53:04 437.432
M-CUBED/EXP-1 PRIME 25 Jul 21:49:14 21:53:01 87° 69° (ENE) 21:57:10 437.505
AIST 2 25 Jul 21:49:42 21:53:20 31° 118° (ESE) 21:57:00 435.215
CUTE 1.7 + AOD 2 25 Jul 21:57:20 21:58:17 11° 274° (W) 21:59:14 437.475
AO-85 25 Jul 22:01:39 22:05:43 29° 36° (NE) 22:09:28 145.980
STRAND 1 25 Jul 22:05:30 22:09:29 24° 300° (WNW) 22:13:29 437.568
O/OREOS (USA 219) 25 Jul 22:07:33 22:12:00 73° 297° (WNW) 22:16:31 437.305
HO-68 25 Jul 22:09:58 22:14:31 18° 274° (W) 22:19:05 435.675
Cosmos 2504 25 Jul 22:16:12 22:24:27 58° 73° (ENE) 22:32:03 435.465 / 435.565
AUBIESAT-1 25 Jul 22:16:53 22:20:39 58° 253° (WSW) 22:24:46 437.475
UNISAT 6 25 Jul 22:20:42 22:23:13 14° 87° (E) 22:25:41 437.425
DELFI C3 25 Jul 22:21:56 22:25:51 56° 260° (W) 22:29:47 145.870
HUMSAT D 25 Jul 22:26:24 22:30:43 80° 74° (ENE) 22:35:03 437.325/437.525
UWE-3 25 Jul 22:30:36 22:33:54 19° 270° (W) 22:37:16 435.000/436.395/437.385
FUNcube-1 25 Jul 22:34:14 22:38:02 26° 267° (W) 22:41:53 145.935
ZACube-1 25 Jul 22:34:20 22:38:04 25° 267° (W) 22:41:51 437.345
ESTCUBE 1 25 Jul 22:37:42 22:41:16 24° 63° (ENE) 22:44:51 437.505/2401.250
50 SAT 25 Jul 22:39:14 22:40:45 12° 60° (ENE) 22:42:16 437.505
PCSat 25 Jul 22:41:22 22:45:38 23° 326° (NW) 22:49:56 145.827
Cosmos 2491 25 Jul 22:51:23 23:00:07 83° 281° (W) 23:08:53 435.465 / 435.565
ISS 25 Jul 22:57:50 23:00:51 37° 147° (SSE) 23:03:55 145.825
ANTELSAT 25 Jul 22:58:03 23:02:13 31° 95° (E) 23:06:18 437.575/2403.000
VELOX 1 25 Jul 23:01:19 23:04:50 24° 63° (ENE) 23:08:22 145.980
CUBEBUG 1 25 Jul 23:06:33 23:10:15 29° 65° (ENE) 23:14:00 437.445
SPROUT 25 Jul 23:09:53 23:12:17 15° 59° (ENE) 23:14:41 437.525
PRISM 25 Jul 23:19:27 23:22:22 19° 298° (WNW) 23:25:15 437.425
YUBILEINY 25 Jul 23:22:46 23:29:49 28° 281° (W) 23:36:52 435.215
AIST 2 25 Jul 23:27:53 23:31:45 38° 317° (NW) 23:35:39 435.215
TIGRISAT 25 Jul 23:39:56 23:44:38 74° 103° (ESE) 23:49:13 435.000
AO-85 25 Jul 23:42:04 23:46:26 50° 239° (WSW) 23:50:25 145.980
AISAT 25 Jul 23:44:57 23:49:16 63° 72° (ENE) 23:53:39 437.250
O/OREOS (USA 219) 25 Jul 23:50:05 23:52:16 13° 319° (NW) 23:54:27 437.305
DX 1 25 Jul 23:50:24 23:54:36 52° 70° (ENE) 23:58:50 434.975-435.025
NANOSAT C BR1 25 Jul 23:51:27 23:54:22 18° 91° (E) 23:57:17 145.865
UNISAT 6 25 Jul 23:55:48 00:00:30 76° 286° (WNW) 00:05:05 437.425
DUCHIFAT 1 25 Jul 23:56:27 23:59:28 19° 91° (E) 00:02:29 145.980
HUMSAT D 26 Jul 00:05:10 00:06:54 12° 273° (W) 00:08:38 437.325/437.525
UKube-1 26 Jul 00:07:01 00:11:16 62° 71° (ENE) 00:15:32 .
Cosmos 2504 26 Jul 00:10:10 00:17:25 35° 277° (W) 00:24:12 435.465 / 435.565
50 SAT 26 Jul 00:10:14 00:13:54 68° 258° (WSW) 00:17:33 437.505
TISAT 1 26 Jul 00:10:51 00:13:26 16° 60° (ENE) 00:16:03 437.305
QB50P1 26 Jul 00:12:19 00:16:07 29° 95° (E) 00:19:52 145.935-145.965
ESTCUBE 1 26 Jul 00:13:32 00:17:51 45° 261° (W) 00:22:11 437.505/2401.250
BUGSAT 1 26 Jul 00:18:01 00:20:27 15° 90° (E) 00:22:51 437.445
POPSAT HIP 1 26 Jul 00:18:32 00:22:28 33° 97° (E) 00:26:21 437.405
PCSat 26 Jul 00:29:38 00:31:10 11° 352° (N) 00:32:44 145.827
AIST 1 26 Jul 00:30:06 00:34:06 35° 73° (ENE) 00:38:07
ISS 26 Jul 00:33:59 00:37:13 61° 346° (NNW) 00:40:27 145.825
ANTELSAT 26 Jul 00:34:43 00:38:56 34° 294° (WNW) 00:43:05 437.575/2403.000
VELOX 1 26 Jul 00:36:55 00:41:05 42° 261° (W) 00:45:17 145.980
QB50P2 26 Jul 00:38:52 00:43:08 57° 101° (E) 00:47:21 145.880/145.840
POLYITAN 1 26 Jul 00:41:30 00:45:47 58° 101° (E) 00:50:01 437.675
CUBEBUG 1 26 Jul 00:42:35 00:46:29 33° 264° (W) 00:50:25 437.445
JAS-2 26 Jul 00:42:46 00:46:46 22° 92° (E) 00:50:57 435.910
SPROUT 26 Jul 00:43:25 00:47:41 74° 257° (WSW) 00:52:01 437.525
Cosmos 2491 26 Jul 00:52:03 00:58:29 22° 304° (NW) 01:04:56 435.465 / 435.565
SWISSCUBE 26 Jul 01:03:02 01:05:52 16° 57° (ENE) 01:08:41 437.505
AIST 2 26 Jul 01:09:45 01:11:22 12° 340° (NNW) 01:13:00 435.215
TIGRISAT 26 Jul 01:17:48 01:20:45 17° 302° (WNW) 01:23:40 435.000
Cosmos 2499 26 Jul 01:21:12 01:25:47 16° 50° (NE) 01:30:11 435.465 / 435.565
Oscar 19 26 Jul 01:22:05 01:24:45 14° 87° (E) 01:27:24 437.125/150
AISAT 26 Jul 01:23:33 01:26:12 16° 270° (W) 01:28:51 437.250
BEESAT 26 Jul 01:23:40 01:27:14 21° 60° (ENE) 01:30:49 436.000
NANOSAT C BR1 26 Jul 01:26:14 01:30:26 53° 289° (WNW) 01:34:35 145.865
DX 1 26 Jul 01:28:06 01:31:07 18° 269° (W) 01:34:09 434.975-435.025
DUCHIFAT 1 26 Jul 01:31:18 01:35:27 50° 290° (WNW) 01:39:35 145.980
GONETS M04 26 Jul 01:32:38 01:39:52 27° 60° (ENE) 01:47:05
UNISAT 6 26 Jul 01:34:37 01:36:23 12° 305° (NW) 01:38:09 437.425
TISAT 1 26 Jul 01:44:27 01:48:37 65° 258° (WSW) 01:52:51 437.305
ITUPSAT 1 26 Jul 01:45:00 01:49:11 31° 64° (ENE) 01:53:23 437.325
UKube-1 26 Jul 01:45:09 01:47:44 15° 270° (W) 01:50:20 .
QB50P1 26 Jul 01:48:03 01:51:53 32° 293° (WNW) 01:55:41 145.935-145.965
BUGSAT 1 26 Jul 01:52:01 01:56:15 64° 287° (WNW) 02:00:27 437.445
POPSAT HIP 1 26 Jul 01:54:27 01:58:09 28° 295° (WNW) 02:01:51 437.405
AIST 1 26 Jul 02:08:01 02:11:33 25° 272° (W) 02:15:05
ISS 26 Jul 02:10:46 02:13:56 48° 6° (N) 02:17:07 145.825
PCSat 26 Jul 02:14:25 02:17:07 14° 19° (NNE) 02:19:50 145.827
QB50P2 26 Jul 02:15:36 02:18:32 18° 299° (WNW) 02:21:28 145.880/145.840
POLYITAN 1 26 Jul 02:18:15 02:21:10 18° 299° (WNW) 02:24:05 437.675
MOZHAYETS 4 26 Jul 02:20:25 02:21:24 11° 54° (NE) 02:22:22
JAS-2 26 Jul 02:27:10 02:32:17 58° 290° (WNW) 02:37:42 435.910
Gurwin Techsat 1B 26 Jul 02:29:12 02:33:37 26° 93° (E) 02:38:01 435.225
BEESAT 3 26 Jul 02:37:01 02:40:20 24° 37° (NE) 02:43:38 437.485
SWISSCUBE 26 Jul 02:38:13 02:43:02 84° 254° (WSW) 02:47:52 437.505
BEESAT 2 26 Jul 02:40:21 02:43:14 19° 32° (NNE) 02:46:07 435.950
ITAMSAT 1 26 Jul 02:53:07 02:55:56 14° 88° (E) 02:58:43 435.822/435.867
Oscar 19 26 Jul 02:59:35 03:04:47 88° 287° (WNW) 03:09:58 437.125/150
BEESAT 26 Jul 02:59:55 03:04:38 59° 259° (WSW) 03:09:24 436.000
AO-7 26 Jul 03:03:05 03:06:02 12° 82° (E) 03:08:58 29.400- 29.500
Cosmos 2499 26 Jul 03:12:55 03:20:56 64° 76° (ENE) 03:28:18 435.465 / 435.565
ITUPSAT 1 26 Jul 03:22:28 03:26:56 38° 263° (W) 03:31:25 437.325
GONETS M04 26 Jul 03:28:59 03:37:48 82° 264° (W) 03:46:39
KKS-1 26 Jul 03:29:18 03:33:25 39° 68° (ENE) 03:37:35 437.445
ISS 26 Jul 03:47:15 03:50:30 72° 206° (SSW) 03:53:46 145.825
MOZHAYETS 4 26 Jul 03:53:06 03:57:42 67° 73° (ENE) 04:02:19
PCSat 26 Jul 03:57:09 04:02:10 36° 43° (NE) 04:07:10 145.827
CUSAT 1 26 Jul 04:04:15 04:07:53 32° 98° (E) 04:10:51 437.405
Gurwin Techsat 1B 26 Jul 04:08:41 04:13:51 51° 292° (WNW) 04:18:59 435.225
STARS 26 Jul 04:11:35 04:15:51 53° 70° (ENE) 04:20:10 437.465
DANDE 26 Jul 04:13:29 04:17:33 22° 94° (E) 04:20:52 436.750
BEESAT 3 26 Jul 04:14:24 04:18:17 53° 237° (WSW) 04:22:08 437.485
JAS-2 26 Jul 04:15:57 04:16:24 10° 310° (NW) 04:16:51 435.910
BEESAT 2 26 Jul 04:17:35 04:21:37 86° 233° (SW) 04:25:37 435.950
SWISSCUBE 26 Jul 04:20:07 04:21:35 11° 274° (W) 04:23:02 437.505
AIST 2 26 Jul 04:29:18 04:32:01 17° 29° (NNE) 04:34:44 435.215
ITAMSAT 1 26 Jul 04:30:52 04:36:07 86° 286° (WNW) 04:41:18 435.822/435.867
Oscar 19 26 Jul 04:40:20 04:43:24 16° 305° (NW) 04:46:27 437.125/150
AO-7 26 Jul 04:52:25 05:00:41 59° 103° (ESE) 05:08:52 29.400- 29.500
O/OREOS (USA 219) 26 Jul 04:57:19 04:58:30 11° 38° (NE) 04:59:41 437.305
KKS-1 26 Jul 05:06:25 05:10:07 25° 266° (W) 05:13:50 437.445
Cosmos 2499 26 Jul 05:06:50 05:13:24 30° 279° (W) 05:19:36 435.465 / 435.565
CUBESAT XI-V 26 Jul 05:08:56 05:13:25 52° 71° (ENE) 05:17:54 437.345
ISS 26 Jul 05:24:36 05:26:29 15° 223° (SW) 05:28:22 145.825
GONETS M04 26 Jul 05:27:28 05:33:15 20° 285° (WNW) 05:39:04
MOZHAYETS 4 26 Jul 05:32:28 05:35:21 16° 271° (W) 05:38:12
PCSat 26 Jul 05:40:31 05:45:44 48° 244° (WSW) 05:50:54 145.827
CUSAT 1 26 Jul 05:47:27 05:49:53 16° 289° (WNW) 05:52:01 437.405
STARS 26 Jul 05:49:26 05:52:32 19° 269° (W) 05:55:40 437.465
DANDE 26 Jul 05:55:01 06:00:15 45° 284° (WNW) 06:04:11 436.750
BEESAT 2 26 Jul 05:57:50 05:58:46 11° 251° (WSW) 05:59:43 435.950
CUTE-I 26 Jul 06:02:42 06:04:00 11° 84° (E) 06:05:18 437.470
AIST 2 26 Jul 06:07:04 06:11:14 70° 49° (NE) 06:15:24 435.215
STRAND 1 26 Jul 06:07:58 06:11:41 20° 58° (ENE) 06:15:24 437.568
ITAMSAT 1 26 Jul 06:11:49 06:14:51 16° 306° (NW) 06:17:52 435.822/435.867
BRITE-PL 26 Jul 06:14:55 06:18:42 23° 93° (E) 06:22:42 437.365/2234.400
HORYU 2 26 Jul 06:16:42 06:21:12 71° 103° (ESE) 06:25:40 437.375
NOAA 15 26 Jul 06:24:53 06:29:00 23° 92° (E) 06:33:05 137.62
NOAA 18 26 Jul 06:26:06 06:29:51 18° 89° (E) 06:33:35 137.9125
O/OREOS (USA 219) 26 Jul 06:34:31 06:38:59 54° 60° (ENE) 06:43:26 437.305
AO-7 26 Jul 06:45:35 06:53:13 41° 305° (NW) 07:00:48 29.400- 29.500
CUBESAT XI-V 26 Jul 06:47:42 06:51:07 20° 269° (W) 06:54:32 437.345
LilacSat-2 26 Jul 06:59:16 07:02:44 30° 96° (E) 07:06:09 437.200
Cosmos 2491 26 Jul 07:01:31 07:06:40 16° 50° (NE) 07:11:47 435.465 / 435.565
RS-15 26 Jul 07:09:03 07:19:44 47° 111° (ESE) 07:30:57 29.354- 29.394
Cubesat XI-IV 26 Jul 07:15:39 07:20:50 46° 99° (E) 07:25:56 437.490
DOVE 4 26 Jul 07:22:41 07:26:54 25° 92° (E) 07:31:13 437.250
GOMX 1 26 Jul 07:23:00 07:27:49 48° 99° (E) 07:32:53 467.674
CUTE-I 26 Jul 07:39:39 07:45:01 72° 103° (ESE) 07:50:20 437.470
HO-68 26 Jul 07:43:47 07:47:55 16° 85° (E) 07:52:01 435.675
CINEMA 3 26 Jul 07:44:37 07:47:02 13° 86° (E) 07:49:27 145.822/145.860
STRAND 1 26 Jul 07:45:13 07:50:22 70° 257° (WSW) 07:55:32 437.568
AIST 2 26 Jul 07:46:40 07:49:14 16° 248° (WSW) 07:51:48 435.215
BRITE-PL 26 Jul 07:52:53 07:57:24 50° 289° (WNW) 08:02:16 437.365/2234.400
HORYU 2 26 Jul 07:54:26 07:57:15 17° 302° (WNW) 08:00:03 437.375
CUTE 1.7 + AOD 2 26 Jul 08:00:42 08:02:15 12° 87° (E) 08:03:49 437.475
NOAA 15 26 Jul 08:03:59 08:09:09 58° 291° (WNW) 08:14:18 137.62
NOAA 18 26 Jul 08:05:34 08:11:09 77° 288° (WNW) 08:16:39 137.9125
O/OREOS (USA 219) 26 Jul 08:14:44 08:18:00 20° 258° (WSW) 08:21:16 437.305
SO-50 26 Jul 08:25:09 08:29:03 24° 114° (ESE) 08:32:56 436.795
LilacSat-2 26 Jul 08:33:42 08:36:57 26° 294° (WNW) 08:40:10 437.200
PRISM 26 Jul 08:36:08 08:40:09 59° 72° (ENE) 08:44:10 437.425
YUBILEINY 26 Jul 08:38:11 08:43:30 18° 73° (ENE) 08:48:50 435.215
AO-7 26 Jul 08:40:08 08:43:47 14° 329° (NNW) 08:47:25 29.400- 29.500
SEEDS 26 Jul 08:40:41 08:43:57 22° 93° (E) 08:47:12 437.485
COMPASS 1 26 Jul 08:54:40 08:57:54 22° 92° (E) 09:01:06 437.405
Cubesat XI-IV 26 Jul 08:56:04 09:00:43 31° 298° (WNW) 09:05:20 437.490
Cosmos 2491 26 Jul 08:57:00 09:05:41 62° 75° (ENE) 09:14:22 435.465 / 435.565
CUBEBUG 2 26 Jul 08:58:49 09:02:22 21° 90° (E) 09:05:51 437.445
DOVE 4 26 Jul 08:59:54 09:04:48 51° 290° (WNW) 09:09:52 437.250
GOMX 1 26 Jul 09:01:35 09:05:42 27° 295° (WNW) 09:10:01 467.674
TIGRISAT 26 Jul 09:07:40 09:10:20 15° 57° (ENE) 09:13:02 435.000
CINEMA 3 26 Jul 09:19:47 09:24:52 89° 127° (SE) 09:29:53 145.822/145.860
RS-15 26 Jul 09:20:11 09:31:48 68° 317° (NW) 09:44:04 29.354- 29.394
CUTE-I 26 Jul 09:20:40 09:24:32 21° 303° (WNW) 09:28:24 437.470
CANX-2 26 Jul 09:20:44 09:25:00 87° 108° (ESE) 09:29:12 2200.000
UNISAT 6 26 Jul 09:22:39 09:26:08 21° 61° (ENE) 09:29:39 437.425
AAUSAT CUBESAT 2 26 Jul 09:23:46 09:27:33 34° 96° (E) 09:31:17 437.432
Oscar 11 26 Jul 09:26:42 09:29:31 17° 90° (E) 09:32:18 145.826/435.025
HO-68 26 Jul 09:29:35 09:36:51 76° 106° (ESE) 09:44:02 435.675
CUTE 1.7 + AOD 2 26 Jul 09:34:25 09:38:40 78° 285° (WNW) 09:42:52 437.475
NOAA 15 26 Jul 09:46:28 09:47:52 11° 310° (NW) 09:49:17 137.62
NOAA 18 26 Jul 09:47:48 09:50:56 16° 308° (NW) 09:54:03 137.9125
DELFI C3 26 Jul 09:56:56 09:59:06 14° 90° (E) 10:01:16 145.870
ANTELSAT 26 Jul 10:00:01 10:04:25 43° 68° (ENE) 10:08:52 437.575/2403.000
SO-50 26 Jul 10:04:23 10:09:13 60° 313° (NW) 10:14:01 436.795
PRISM 26 Jul 10:13:33 10:15:51 15° 270° (W) 10:18:09 437.425
UWE-3 26 Jul 10:14:47 10:19:27 73° 102° (ESE) 10:23:59 435.000/436.395/437.385
SEEDS 26 Jul 10:15:54 10:19:49 40° 291° (WNW) 10:23:43 437.485
FUNcube-1 26 Jul 10:17:38 10:22:03 49° 99° (E) 10:26:20 145.935
ZACube-1 26 Jul 10:17:55 10:22:23 52° 99° (E) 10:26:43 437.345
COMPASS 1 26 Jul 10:29:44 10:33:37 40° 291° (WNW) 10:37:29 437.405
YUBILEINY 26 Jul 10:29:59 10:38:44 76° 95° (E) 10:47:35 435.215
CUBEBUG 2 26 Jul 10:34:41 10:39:20 54° 289° (WNW) 10:43:52 437.445
TIGRISAT 26 Jul 10:41:43 10:46:22 84° 257° (WSW) 10:51:07 435.000
NANOSAT C BR1 26 Jul 10:47:06 10:50:23 22° 63° (ENE) 10:53:41 145.865
DUCHIFAT 1 26 Jul 10:51:50 10:55:10 23° 63° (ENE) 10:58:32 145.980
Cosmos 2491 26 Jul 10:54:28 11:02:03 35° 277° (W) 11:09:39 435.465 / 435.565
Cosmos 2504 26 Jul 10:57:48 11:06:02 45° 87° (E) 11:14:13 435.465 / 435.565
UNISAT 6 26 Jul 10:57:54 11:02:27 56° 260° (W) 11:07:07 437.425
CINEMA 3 26 Jul 10:58:20 11:01:17 16° 303° (WNW) 11:04:15 145.822/145.860
CANX-2 26 Jul 10:58:28 11:00:13 12° 302° (WNW) 11:01:58 2200.000
M-CUBED/EXP-1 PRIME 26 Jul 10:58:45 11:03:09 39° 103° (ESE) 11:07:34 437.505
AAUSAT CUBESAT 2 26 Jul 10:59:30 11:02:55 26° 294° (WNW) 11:06:19 437.432
JAS-2 26 Jul 11:00:46 11:04:18 17° 56° (NE) 11:07:40 435.910
Oscar 11 26 Jul 11:01:46 11:06:02 57° 288° (WNW) 11:10:14 145.826/435.025
QB50P1 26 Jul 11:08:10 11:12:02 36° 68° (ENE) 11:15:58 145.935-145.965
BUGSAT 1 26 Jul 11:11:27 11:14:11 17° 61° (ENE) 11:16:57 437.445
CUTE 1.7 + AOD 2 26 Jul 11:12:57 11:13:45 10° 304° (NW) 11:14:34 437.475
POPSAT HIP 1 26 Jul 11:14:23 11:18:22 40° 69° (ENE) 11:22:23 437.405
HO-68 26 Jul 11:18:04 11:23:57 28° 306° (NW) 11:29:48 435.675
AUBIESAT-1 26 Jul 11:25:42 11:30:17 58° 106° (ESE) 11:34:52 437.475
DELFI C3 26 Jul 11:30:27 11:34:20 57° 287° (WNW) 11:38:11 145.870
QB50P2 26 Jul 11:34:46 11:39:00 69° 73° (ENE) 11:43:16 145.880/145.840
RS-15 26 Jul 11:36:02 11:46:59 38° 349° (NNW) 11:58:17 29.354- 29.394
POLYITAN 1 26 Jul 11:37:23 11:41:38 71° 73° (ENE) 11:45:56 437.675
ANTELSAT 26 Jul 11:37:25 11:41:17 25° 267° (W) 11:45:11 437.575/2403.000
HUMSAT D 26 Jul 11:41:40 11:45:56 89° 123° (ESE) 11:50:05 437.325/437.525
SO-50 26 Jul 11:47:17 11:50:39 18° 335° (NNW) 11:53:59 436.795
UWE-3 26 Jul 11:52:24 11:55:21 17° 301° (WNW) 11:58:15 435.000/436.395/437.385
FUNcube-1 26 Jul 11:54:30 11:57:58 22° 298° (WNW) 12:01:23 145.935
ZACube-1 26 Jul 11:54:55 11:58:19 21° 298° (WNW) 12:01:39 437.345
ESTCUBE 1 26 Jul 12:02:13 12:06:06 28° 95° (E) 12:09:58 437.505/2401.250
Gurwin Techsat 1B 26 Jul 12:18:33 12:20:05 11° 50° (NE) 12:21:36 435.225
AO-7 26 Jul 12:20:04 12:21:33 11° 25° (NNE) 12:23:01 29.400- 29.500
NANOSAT C BR1 26 Jul 12:21:49 12:25:52 44° 261° (W) 12:29:58 145.865
TIGRISAT 26 Jul 12:22:33 12:23:49 11° 275° (W) 12:25:05 435.000
VELOX 1 26 Jul 12:23:10 12:26:57 27° 94° (E) 12:30:45 145.980
DUCHIFAT 1 26 Jul 12:26:38 12:30:39 41° 262° (W) 12:34:43 145.980
SPROUT 26 Jul 12:26:46 12:29:18 15° 89° (E) 12:31:48 437.525
CUBEBUG 1 26 Jul 12:26:51 12:30:51 33° 97° (E) 12:34:50 437.445
YUBILEINY 26 Jul 12:29:03 12:36:29 30° 299° (WNW) 12:44:01 435.215
M-CUBED/EXP-1 PRIME 26 Jul 12:33:26 12:37:32 32° 300° (WNW) 12:41:41 437.505
Oscar 19 26 Jul 12:41:55 12:46:21 31° 63° (ENE) 12:50:48 437.125/150
JAS-2 26 Jul 12:42:49 12:48:50 89° 254° (WSW) 12:54:17 435.910
QB50P1 26 Jul 12:44:20 12:47:54 26° 266° (W) 12:51:30 145.935-145.965
BUGSAT 1 26 Jul 12:45:09 12:49:09 56° 259° (W) 12:53:15 437.445
Cosmos 2504 26 Jul 12:50:46 12:59:21 51° 288° (WNW) 13:07:54 435.465 / 435.565
POPSAT HIP 1 26 Jul 12:50:55 12:54:18 23° 267° (W) 12:57:44 437.405
AUBIESAT-1 26 Jul 13:00:49 13:04:22 22° 304° (NW) 13:07:57 437.475
AIST 1 26 Jul 13:04:35 13:07:21 17° 85° (E) 13:10:07
AISAT 26 Jul 13:07:29 13:11:57 76° 103° (ESE) 13:16:26 437.250
50 SAT 26 Jul 13:08:40 13:12:18 87° 102° (ESE) 13:15:53 437.505
DX 1 26 Jul 13:10:38 13:14:59 57° 102° (ESE) 13:19:17 434.975-435.025
QB50P2 26 Jul 13:13:07 13:15:18 14° 272° (W) 13:17:29 145.880/145.840
POLYITAN 1 26 Jul 13:15:48 13:17:56 13° 272° (W) 13:20:06 437.675
HUMSAT D 26 Jul 13:19:13 13:20:52 12° 303° (WNW) 13:22:31 437.325/437.525
TISAT 1 26 Jul 13:25:41 13:28:13 15° 90° (E) 13:30:45 437.305
UKube-1 26 Jul 13:26:08 13:30:27 66° 102° (ESE) 13:34:46 .
SO-50 26 Jul 13:31:27 13:33:02 11° 360° (N) 13:34:37 436.795
ESTCUBE 1 26 Jul 13:38:53 13:42:58 36° 293° (WNW) 13:47:04 437.505/2401.250
RS-15 26 Jul 13:51:50 14:03:21 43° 22° (NNE) 14:14:59 29.354- 29.394
Gurwin Techsat 1B 26 Jul 13:53:45 13:58:57 58° 70° (ENE) 14:04:12 435.225
VELOX 1 26 Jul 13:59:25 14:03:31 37° 293° (WNW) 14:07:36 145.980
AO-85 26 Jul 13:59:26 14:03:42 25° 114° (ESE) 14:07:50 145.980
SPROUT 26 Jul 14:01:23 14:05:40 64° 288° (WNW) 14:09:57 437.525
CUBEBUG 1 26 Jul 14:03:15 14:07:04 29° 294° (WNW) 14:10:53 437.445
AO-7 26 Jul 14:04:41 14:11:39 31° 50° (NE) 14:18:37 29.400- 29.500
Cosmos 2499 26 Jul 14:09:08 14:09:46 10° 67° (ENE) 14:10:25 435.465 / 435.565
ITAMSAT 1 26 Jul 14:13:59 14:18:38 34° 64° (ENE) 14:23:18 435.822/435.867
Oscar 19 26 Jul 14:20:41 14:25:32 42° 262° (W) 14:30:25 437.125/150
JAS-2 26 Jul 14:31:31 14:34:36 14° 272° (W) 14:37:34 435.910
CUSAT 1 26 Jul 14:32:09 14:34:28 22° 73° (ENE) 14:37:05 437.405
SWISSCUBE 26 Jul 14:35:27 14:38:50 19° 91° (E) 14:42:11 437.505
AIST 1 26 Jul 14:40:25 14:44:33 50° 284° (WNW) 14:48:44
GONETS M04 26 Jul 14:40:29 14:47:04 25° 78° (ENE) 14:53:40
AISAT 26 Jul 14:45:17 14:47:53 15° 302° (WNW) 14:50:29 437.250
DX 1 26 Jul 14:47:44 14:50:47 19° 300° (WNW) 14:53:50 434.975-435.025
Cosmos 2504 26 Jul 14:51:02 14:55:14 14° 313° (NW) 14:59:25 435.465 / 435.565
BEESAT 26 Jul 14:56:29 15:00:31 26° 94° (E) 15:04:31 436.000
TISAT 1 26 Jul 15:00:03 15:04:16 61° 288° (WNW) 15:08:28 437.305
UKube-1 26 Jul 15:03:19 15:06:02 17° 301° (WNW) 15:08:45 .
SO-50 26 Jul 15:12:11 15:15:26 18° 25° (NNE) 15:18:37 436.795
ITUPSAT 1 26 Jul 15:18:43 15:23:15 41° 98° (E) 15:27:44 437.325
Gurwin Techsat 1B 26 Jul 15:35:09 15:39:17 23° 268° (W) 15:43:28 435.225
AO-85 26 Jul 15:38:35 15:43:53 65° 312° (NW) 15:48:55 145.980
HORYU 2 26 Jul 15:44:01 15:46:35 15° 57° (ENE) 15:49:08 437.375
MOZHAYETS 4 26 Jul 15:46:20 15:48:05 12° 86° (E) 15:49:50
Cosmos 2499 26 Jul 15:52:23 16:00:47 49° 89° (E) 16:08:57 435.465 / 435.565
ITAMSAT 1 26 Jul 15:53:08 15:58:02 39° 262° (W) 16:02:57 435.822/435.867
AO-7 26 Jul 15:55:17 16:03:40 81° 251° (WSW) 16:12:07 29.400- 29.500
SWISSCUBE 26 Jul 16:12:19 16:17:02 59° 289° (WNW) 16:21:41 437.505
CUSAT 1 26 Jul 16:14:32 16:16:22 15° 265° (W) 16:18:23 437.405
NOAA 18 26 Jul 16:20:52 16:21:26 10° 46° (NE) 16:21:59 137.9125
